Temp
28 28 27 27 27 27 27 26 26 26 26 26 27 27 27 27 27 27 27 27 27 26 26 26 26 26 26 27 27 26 26 26 26 26 25 25 25 25 25 25 25 25 25 25 26 26 26 26 26 26 26 26 27 27 28 28 27 27 27 27 27 27 27 27 27 27 27 28 28 28 29 28 28 28 28 28 29 28 27 28 27 27 28 28 27
28 28 27 27 27 27 27 27 26 26 27 27 27 27 27 27 27 27 27 27 27 27 27 26 26 26 26 26 26 26 26 25 25 26 26 25 25 25 26 25 25 25 25 25 25 26 26 25 25 26 26 26 26 27 27 28 28 28 28 28 28 28 27 27 27 27 27 27 28 28 28 28 28 28 27 28 28 28 27 28 28 28 29 28 28
28 27 27 27 27 27 27 27 27 27 27 27 27 28 28 27 27 27 27 27 27 27 26 27 27 26 26 26 26 26 26 25 26 26 26 25 25 26 26 26 26 26 25 25 25 26 26 26 26 26 27 27 27 27 27 28 28 28 28 28 28 27 27 27 26 27 27 27 28 28 28 28 27 28 27 27 27 27 27 28 28 29 28 28 28
27 27 26 26 27 27 27 27 27 27 27 27 28 28 28 28 28 27 27 27 27 27 27 27 26 26 26 26 26 26 26 26 26 26 26 26 25 26 26 26 26 26 26 26 26 26 26 26 26 26 27 27 26 27 27 27 27 27 27 27 27 27 27 27 26 26 26 27 27 27 28 27 27 27 27 27 28 27 27 27 28 28 28 28 29
26 26 26 26 26 27 27 28 28 28 27 28 28 28 28 28 28 28 27 28 28 27 27 26 26 26 26 26 26 26 26 26 26 26 26 26 26 26 26 26 26 26 26 26 26 26 26 26 26 26 26 26 26 27 27 27 27 27 27 27 27 27 27 27 26 26 26 26 27 27 27 27 27 27 27 27 28 28 27 27 27 27 27 27 28
26 26 26 26 26 26 27 27 28 27 27 27 28 28 28 28 28 28 28 28 28 28 27 27 27 26 26 26 26 26 26 26 26 26 26 26 26 26 26 26 26 26 26 26 26 26 26 26 26 26 26 26 27 27 27 27 27 27 27 27 27 27 27 27 26 26 26 26 26 27 27 27 27 27 27 27 27 28 27 27 27 27 26 27 27
25 25 25 26 26 26 26 27 27 27 27 27 27 28 28 28 28 28 28 27 27 28 28 27 27 27 26 26 27 26 26 26 26 26 26 26 26 26 26 26 26 26 26 26 26 26 26 26 26 26 26 26 26 27 27 27 27 27 27 27 27 26 27 27 27 26 26 27 27 27 27 28 27 27 27 26 26 27 27 27 27 27 26 26 26
25 25 25 25 25 26 26 27 27 27 26 26 26 27 27 27 28 28 27 27 27 27 28 27 27 27 27 27 27 27 26 26 26 26 26 26 26 26 26 26 26 26 26 26 26 27 27 27 27 27 27 27 26 26 27 27 26 26 26 26 26 26 26 27 26 26 26 27 27 26 26 27 27 27 27 27 27 27 27 27 27 27 26 26 26
24 25 25 25 25 25 26 26 25 25 25 25 25 25 26 26 27 27 27 27 27 27 27 27 27 27 27 27 27 27 26 26 26 26 26 26 26 26 26 26 26 26 26 26 27 27 27 27 27 27 27 27 26 26 26 26 25 25 25 24 24 25 24 24 25 25 25 25 25 24 24 24 25 25 26 27 27 27 27 26 26 26 26 26 26
23 24 24 25 25 25 25 24 24 24 24 25 25 24 24 24 25 26 27 27 27 27 27 27 27 27 27 27 27 27 27 27 26 26 26 26 26 26 27 26 26 26 26 26 26 27 27 27 27 27 27 26 26 25 25 25 25 25 25 24 24 24 23 23 23 23 23 23 24 24 24 23 23 23 26 28 28 27 27 26 26 26 26 26 26
23 23 24 24 24 24 24 24 24 24 24 24 24 23 23 23 23 24 25 26 27 27 27 27 27 27 27 27 27 27 27 27 26 26 25 25 26 26 26 26 26 26 26 26 26 26 27 27 27 27 27 26 26 25 25 25 25 25 25 24 24 24 23 22 22 23 23 23 24 24 24 23 22 22 26 29 28 27 27 26 26 26 25 26 26
23 23 23 23 24 24 23 23 24 23 23 23 23 23 23 23 23 23 24 25 25 26 26 26 27 27 27 27 27 27 27 27 26 25 25 25 25 25 25 26 25 26 26 26 26 27 27 27 27 28 28 27 27 26 25 25 25 25 25 25 25 24 24 23 23 24 23 23 24 25 24 24 22 22 25 28 28 26 26 26 25 25 25 25 26
23 23 23 23 23 23 23 23 23 23 23 23 23 23 23 23 23 23 23 24 24 24 26 26 26 26 27 27 27 28 28 27 26 25 25 25 25 25 25 25 25 25 25 25 25 26 26 26 27 27 28 27 27 26 25 25 25 25 25 25 25 25 24 24 24 24 24 23 24 24 25 24 22 22 25 27 26 25 26 25 25 25 25 25 24
21 22 22 22 22 23 22 22 22 22 22 23 22 22 22 22 23 23 23 23 22 22 24 25 25 25 25 25 25 26 26 25 25 25 25 25 25 24 24 24 24 25 25 25 25 25 25 25 25 25 26 26 26 25 25 24 24 24 25 25 25 25 24 24 25 24 24 24 23 23 24 24 23 23 25 25 24 25 25 25 25 25 25 24 23
20 20 21 21 21 22 22 22 22 22 22 22 22 21 21 21 22 22 22 22 21 21 21 22 23 24 24 24 24 23 23 23 23 24 24 24 24 23 23 24 24 24 24 24 24 25 25 25 24 24 24 25 25 25 24 25 24 24 24 25 25 25 25 24 24 24 24 24 24 24 24 24 23 24 25 24 24 24 24 24 24 24 24 24 23
19 19 19 20 20 21 21 21 21 21 21 21 21 21 20 20 20 20 21 21 21 21 20 20 21 22 23 23 23 23 22 22 22 23 24 23 24 24 24 24 23 23 23 23 24 24 24 24 24 24 23 24 24 24 24 24 24 24 25 25 25 25 25 24 24 24 24 24 24 24 24 24 24 25 25 24 24 24 23 23 23 23 24 24 24
18 18 18 18 19 20 20 20 20 21 20 20 20 20 20 20 20 20 20 20 20 20 20 20 21 21 22 22 22 22 22 22 22 23 23 23 23 23 23 23 23 23 24 23 23 23 24 24 24 23 23 24 24 24 24 24 24 24 24 25 25 25 25 24 24 24 24 24 24 25 25 24 24 24 24 23 23 23 23 23 24 24 24 24 25
17 17 17 18 18 18 19 19 19 19 19 19 19 19 19 19 19 19 19 20 20 20 20 20 21 21 21 22 22 22 22 21 21 22 22 22 22 22 21 22 22 23 24 24 23 23 24 24 23 22 23 24 24 23 24 23 23 23 24 24 24 25 24 24 24 24 23 24 24 24 24 24 23 23 23 23 23 23 22 23 24 24 24 24 25
17 17 17 18 18 18 18 18 18 18 18 19 19 19 19 18 19 19 19 19 19 19 19 20 20 21 21 21 21 21 21 21 21 21 21 21 21 20 20 21 21 22 23 23 23 23 23 23 23 22 23 23 23 23 23 23 22 23 23 24 24 24 24 24 23 23 22 23 23 23 23 23 22 22 22 22 22 22 22 22 23 23 24 24 24
17 17 17 17 18 18 18 18 18 18 18 18 18 18 18 18 19 19 19 18 19 19 19 19 20 20 20 20 20 20 21 20 20 20 20 20 20 20 20 21 21 21 21 22 22 23 23 23 23 22 21 22 22 22 22 22 22 22 22 23 23 24 23 23 22 22 22 22 23 22 22 22 21 21 21 21 21 21 21 22 22 23 23 23 23
18 18 18 18 18 18 18 18 18 18 17 17 17 17 17 18 18 19 18 18 19 19 19 19 19 19 19 19 19 19 19 19 19 19 19 19 19 19 19 20 20 20 21 21 21 22 22 22 22 21 20 21 21 21 21 21 21 21 22 22 22 23 23 22 21 21 22 22 22 22 22 21 21 21 21 22 21 21 21 21 21 21 22 22 23
18 18 18 18 18 18 18 18 18 18 18 17 17 17 17 17 18 18 18 18 19 19 19 19 19 18 18 18 18 17 17 18 18 18 18 18 18 18 18 18 19 19 19 20 21 21 21 21 21 20 20 20 20 20 21 21 21 21 21 21 22 22 21 21 21 21 21 21 21 21 21 20 20 20 20 21 21 20 20 20 20 20 20 20 20
18 18 18 18 18 18 18 18 17 17 17 17 16 16 17 17 17 18 18 18 18 18 18 18 17 17 17 17 17 16 16 16 17 17 17 17 17 17 17 18 18 18 18 19 19 20 20 20 19 19 19 20 20 20 20 20 20 20 20 20 21 21 20 20 21 21 20 20 20 20 20 19 19 19 19 19 19 19 19 19 19 19 19 19 18
18 18 18 18 17 17 17 17 17 16 17 17 16 16 17 17 17 17 18 17 17 17 17 17 17 16 16 15 15 15 15 15 16 16 17 17 17 17 17 17 18 18 18 18 18 18 19 19 19 19 19 19 19 19 19 19 19 19 19 19 19 20 20 20 20 20 19 19 19 19 19 19 19 18 18 18 18 18 18 18 18 17 17 17 17
18 19 19 18 18 18 17 17 16 16 16 17 16 16 16 16 16 16 16 16 16 16 16 16 16 15 15 14 14 15 15 15 16 16 16 16 17 17 17 17 17 17 18 19 18 18 18 19 19 19 19 18 18 18 18 18 18 19 19 19 19 19 19 19 19 19 18 18 18 18 18 18 17 17 17 18 17 17 18 17 17 17 17 16 16
18 18 19 19 19 18 18 18 17 16 16 16 16 16 16 16 15 15 16 16 16 15 15 15 15 14 14 14 14 15 15 15 16 16 16 16 17 17 17 17 17 17 18 19 19 19 19 18 18 19 18 17 17 17 17 17 17 18 18 19 19 19 19 19 19 19 18 18 18 17 17 17 17 17 17 17 17 17 17 17 18 18 17 17 17
18 19 19 19 19 18 18 18 18 17 16 16 16 16 16 16 15 15 15 15 15 15 15 15 14 14 14 14 14 15 15 15 15 15 16 16 17 17 17 17 17 18 18 18 18 18 18 18 18 18 18 17 17 17 17 17 17 17 17 18 18 18 18 19 18 18 18 17 17 16 16 16 16 17 17 17 17 17 17 18 18 18 18 17 18
18 18 18 18 18 18 18 18 18 17 16 16 16 16 16 15 15 15 15 15 15 15 15 14 15 15 15 15 14 14 14 14 15 15 16 16 17 17 17 17 17 17 17 17 18 18 18 18 18 18 18 17 17 17 17 17 16 16 16 17 17 17 17 18 17 17 16 16 16 16 16 16 16 17 17 17 17 17 17 17 17 17 17 17 18
18 18 18 18 18 18 18 18 18 18 17 16 15 15 15 15 15 15 15 15 15 15 15 15 15 15 15 15 15 14 14 14 15 15 15 16 16 16 17 17 17 17 17 17 17 18 18 18 20 20 19 18 17 17 17 17 17 16 16 16 16 16 16 16 16 16 15 16 16 16 16 17 17 17 17 17 16 16 16 16 16 16 17 17 18
18 18 19 19 18 18 19 18 18 18 18 17 16 15 15 15 15 15 15 15 15 15 15 15 15 15 14 15 15 15 14 14 15 15 15 15 15 16 16 16 17 17 17 17 17 18 18 19 20 21 20 19 19 17 17 17 17 16 16 16 15 15 15 15 15 15 15 15 16 16 16 17 17 17 17 16 16 16 16 16 16 16 17 17 17
18 18 18 18 17 18 19 18 17 17 18 17 17 16 15 15 15 15 15 15 15 15 15 15 15 15 14 14 15 15 15 15 15 15 15 15 15 15 16 17 17 17 17 17 18 19 20 20 20 20 20 20 19 18 17 17 17 16 15 15 15 15 15 15 15 15 15 15 15 16 16 16 16 16 16 16 16 16 16 17 17 17 17 17 17
18 18 18 17 17 17 18 18 18 17 17 17 17 17 17 16 15 15 15 15 15 15 15 15 15 15 15 15 15 15 15 15 15 15 15 15 15 15 16 16 17 17 17 17 18 19 20 20 20 20 20 19 18 17 17 17 17 16 16 15 15 15 15 15 15 15 15 15 15 15 15 16 16 16 16 16 17 17 17 17 17 17 17 17 17
17 17 17 17 17 17 17 17 17 17 17 17 17 17 18 18 17 16 15 15 15 15 15 15 15 15 15 15 15 15 15 15 15 15 15 15 15 15 16 16 16 16 16 17 18 19 19 19 19 18 18 18 18 17 17 17 17 16 16 15 15 14 15 15 15 15 15 16 16 16 16 16 16 16 16 16 17 18 18 18 17 17 17 17 17
16 16 16 16 16 17 17 17 17 17 17 17 17 18 18 18 18 17 17 17 16 15 15 15 15 15 15 15 15 15 15 15 15 15 16 16 16 15 16 16 16 15 15 15 16 16 17 17 16 16 16 16 16 16 15 15 15 15 15 14 14 14 14 15 15 15 15 15 15 16 16 16 16 16 16 16 17 17 17 17 17 16 16 16 15
16 16 15 15 16 16 17 17 17 17 17 17 17 18 18 18 18 18 18 18 18 17 16 15 15 15 15 15 14 14 14 15 15 15 15 16 16 16 16 16 16 16 16 15 15 15 15 15 14 14 14 14 14 14 14 14 13 13 14 14 14 14 14 14 14 14 14 14 14 14 15 15 15 16 16 16 16 16 16 16 16 15 15 15 14
17 17 16 16 16 16 16 16 16 16 16 16 17 18 18 18 18 18 18 18 18 18 17 16 15 15 15 14 14 14 14 14 14 15 15 15 15 16 16 16 16 17 17 16 15 15 15 15 14 13 12 12 12 12 13 13 13 13 13 14 14 14 14 13 13 13 13 13 13 13 13 13 13 14 14 14 14 15 15 15 14 14 14 13 13
17 18 17 17 16 16 16 16 16 16 16 16 17 18 18 18 19 19 19 18 18 18 18 17 16 16 15 15 14 14 14 14 14 15 15 15 15 16 16 16 16 16 16 16 15 15 15 14 14 13 12 12 11 11 11 11 11 12 12 13 13 13 13 13 13 12 12 12 11 11 11 11 11 12 13 13 13 13 13 13 13 13 13 12 12
17 17 16 16 16 16 16 16 16 16 16 17 17 18 18 18 18 18 18 19 18 18 18 18 17 17 17 16 15 15 14 15 15 15 15 15 16 16 16 16 16 15 15 15 15 15 14 14 13 13 12 12 11 11 11 10 10 10 11 11 11 11 11 11 11 11 10 10 10 10 10 10 10 10 11 11 11 11 11 12 12 12 12 12 12
17 17 16 15 15 16 16 17 17 17 17 17 18 18 18 18 18 18 18 18 18 18 18 18 18 18 17 16 16 16 16 16 16 16 15 15 15 16 16 16 16 15 15 15 15 15 14 14 13 13 12 11 11 11 11 10 10 9 10 10 10 9 9 9 9 9 9 9 9 9 9 9 9 9 10 10 10 10 10 10 11 11 11 12 12
17 17 16 15 15 16 17 17 17 17 17 18 18 18 18 18 18 18 18 18 18 18 18 18 18 17 16 15 15 16 16 16 16 15 15 15 15 15 15 15 15 15 14 14 14 14 14 13 13 12 12 11 11 11 11 10 10 10 9 9 9 9 8 8 8 8 8 8 8 8 8 8 8 8 9 9 9 9 9 9 10 10 10 10 11
17 17 17 16 15 16 16 17 18 18 17 17 17 18 18 18 18 18 18 18 18 17 17 18 18 16 15 14 14 15 15 16 16 15 15 15 14 14 15 14 14 14 14 14 13 13 13 13 12 12 11 11 10 10 10 10 10 9 9 9 9 8 8 8 8 7 7 7 7 7 7 7 7 7 7 7 7 8 8 8 9 9 9 10 10
16 16 17 16 16 16 16 17 17 17 17 17 17 17 18 17 18 18 17 17 18 17 17 17 16 15 14 14 14 14 15 15 15 15 14 14 14 14 14 13 13 13 13 13 13 12 12 12 12 11 11 10 10 10 10 9 9 9 9 9 8 8 8 8 7 7 7 7 7 7 7 7 7 7 7 7 7 7 7 7 8 8 8 9 9
16 16 16 16 16 16 17 17 17 17 17 17 17 17 17 17 17 17 17 17 17 17 17 17 15 14 14 13 14 14 15 15 15 15 14 14 14 13 13 13 13 13 12 12 12 12 12 12 11 11 10 10 10 10 9 9 9 9 9 8 8 8 8 8 7 7 7 7 7 7 7 7 7 7 7 7 7 7 7 7 7 8 8 8 8
15 15 16 16 16 16 16 16 16 16 16 16 16 16 16 16 17 17 17 17 17 17 17 16 16 15 14 13 14 15 15 15 15 15 14 14 13 13 13 13 12 12 12 12 11 11 11 11 11 10 10 9 9 9 9 9 9 9 9 8 8 8 7 7 7 6 6 6 7 7 7 7 7 7 7 7 7 7 7 7 7 8 8 8 9
15 16 16 16 16 16 16 16 16 16 16 16 16 16 16 16 16 17 17 17 16 16 16 16 15 15 15 14 14 15 15 15 14 14 14 14 13 13 13 13 12 12 12 12 11 11 11 11 10 10 10 9 9 8 8 8 8 8 8 8 8 8 7 7 7 7 6 6 6 7 7 7 7 7 7 7 7 8 8 8 8 8 8 8 9
15 15 16 16 16 16 16 16 16 16 16 16 16 16 16 16 16 16 16 16 16 16 16 16 15 15 15 15 15 15 15 14 14 14 13 14 14 13 13 13 12 11 11 11 10 10 10 10 10 10 9 9 9 8 7 7 6 6 6 6 6 6 7 7 7 7 6 6 6 6 7 7 7 7 6 7 7 8 8 8 8 8 8 8 8
14 15 15 15 15 16 16 16 16 15 16 16 16 16 16 16 16 16 16 16 15 15 15 15 15 15 15 15 15 14 14 14 14 13 13 13 13 12 12 12 12 11 11 10 10 10 9 9 9 9 8 8 8 7 6 6 6 5 5 5 5 5 5 6 6 6 5 6 6 6 7 7 7 7 7 7 8 8 8 8 8 8 7 7 8
14 14 15 15 15 15 15 15 15 15 15 16 16 16 15 16 16 15 15 15 15 15 15 15 14 14 14 14 14 14 14 13 13 13 12 12 12 12 11 11 11 12 11 10 9 9 9 9 8 8 8 7 7 6 6 5 6 5 4 4 4 4 4 5 5 5 5 5 6 6 6 7 7 8 7 7 7 7 7 8 7 7 7 7 7
14 14 15 14 14 15 15 15 15 15 15 15 15 15 15 15 15 15 15 15 14 14 14 14 14 14 14 13 13 13 13 13 13 12 12 12 11 11 11 10 10 10 11 11 10 9 8 8 8 7 7 6 6 5 5 5 5 4 4 3 4 4 4 4 4 4 4 5 6 6 6 6 7 7 7 7 7 7 7 7 7 7 7 7 7
13 13 14 14 14 14 14 14 14 14 15 15 15 15 15 14 14 15 15 15 14 14 14 14 14 14 14 13 13 12 12 12 12 12 12 11 11 10 10 10 9 9 10 10 9 8 8 7 7 6 6 6 5 5 4 4 4 4 3 3 3 3 3 3 4 4 4 5 6 6 6 6 6 7 7 7 7 7 7 7 7 7 7 7 7
13 13 13 13 13 13 14 14 14 14 14 14 14 14 14 14 14 14 14 14 14 14 13 13 13 13 12 12 12 12 12 12 12 11 11 10 10 10 9 9 9 8 8 8 8 8 7 7 6 6 5 5 4 4 4 4 4 4 3 3 3 3 3 3 4 4 4 4 5 6 6 6 6 6 7 7 7 7 7 6 7 7 7 7 7
Height
816 818 820 822 824 825 827 829 831 832 833 835 835 836 837 838 839 840 840 842 842 843 844 845 846 847 848 849 849 850 851 852 853 853 854 854 854 854 855 855 856 856 857 857 857 857 856 856 856 856 856 855 854 854 853 853 852 852 852 852 851 851 851 851 850 848 847 847 846 844 843 843 843 843 843 842 841 841 840 840 839 838 837 836 834
814 816 818 820 821 823 825 827 828 830 831 832 833 834 835 836 837 838 838 839 840 841 842 843 844 845 845 846 847 848 849 850 851 851 851 852 852 852 853 853 854 854 855 855 855 855 855 855 855 854 854 854 853 852 852 851 851 850 850 850 850 850 849 849 849 847 846 846 845 844 843 843 843 842 842 842 841 840 840 839 838 837 836 835 834
812 814 816 818 819 821 823 824 826 827 828 829 830 831 832 833 834 835 836 837 838 839 840 841 842 843 843 844 845 846 847 848 848 849 849 850 850 850 851 851 851 852 852 852 853 853 853 853 853 852 852 851 851 851 850 849 849 849 848 848 848 848 848 848 848 847 846 844 844 843 842 842 842 842 841 841 840 840 839 838 837 836 835 834 834
811 812 814 815 817 819 820 822 823 824 825 826 827 828 829 830 831 832 833 834 835 836 838 839 840 841 842 842 843 844 844 845 846 846 847 847 848 848 849 849 849 850 850 850 850 850 850 850 850 850 850 850 850 849 849 848 848 848 847 847 848 847 847 847 847 846 845 844 843 842 842 841 841 841 840 840 839 838 838 837 836 835 835 834 832
809 810 812 813 815 816 818 819 820 821 822 823 824 825 826 827 828 829 831 831 832 833 835 836 837 838 839 840 841 841 842 843 843 844 844 845 845 846 846 847 847 847 848 848 848 848 848 848 848 848 848 848 848 848 847 847 847 846 846 846 846 846 846 845 845 845 844 843 842 841 841 840 840 839 839 838 838 837 836 836 835 834 834 833 831
807 808 810 811 812 814 815 816 817 818 820 821 822 823 824 825 826 827 828 829 830 831 832 833 834 835 837 837 838 839 840 840 841 841 842 842 843 844 844 844 845 845 845 846 846 846 846 846 846 846 846 846 846 846 845 845 845 845 845 845 844 844 844 844 844 843 843 842 840 839 839 838 838 837 837 837 837 836 835 835 834 834 833 832 831
805 806 807 808 810 811 812 814 815 816 817 819 820 821 822 823 824 825 826 827 828 829 829 830 831 832 834 835 836 837 838 838 839 839 840 840 841 841 842 842 842 843 843 843 843 843 843 843 843 843 844 844 844 844 844 844 844 843 843 843 843 843 842 841 841 841 840 839 838 837 836 835 835 835 835 835 835 835 834 833 833 832 832 831 830
803 804 804 805 807 807 809 811 812 814 816 817 819 820 821 822 823 823 825 825 826 827 827 828 829 830 831 832 833 834 835 836 837 837 838 839 839 839 840 840 840 840 840 840 840 840 840 840 840 840 841 841 842 842 842 842 841 841 841 841 842 841 840 839 839 839 839 838 837 837 837 835 834 833 832 833 833 833 832 832 832 831 831 830 829
802 802 803 803 804 805 807 809 810 812 814 815 817 818 820 821 822 822 823 824 825 825 826 827 827 828 829 830 831 832 833 833 834 835 836 837 837 837 838 838 838 838 838 838 838 838 838 838 837 837 838 839 839 839 840 840 840 840 840 840 841 841 841 839 837 837 837 838 839 838 837 836 835 833 831 830 831 831 831 831 831 830 830 829 828
801 800 801 802 803 804 806 807 808 810 811 812 814 816 819 822 822 821 821 822 823 824 824 825 825 826 827 827 828 829 830 830 831 832 833 834 835 835 835 836 836 836 836 836 836 836 836 835 835 835 836 836 837 837 837 838 838 839 839 839 840 840 841 841 838 836 836 837 837 837 836 835 835 834 830 827 828 829 829 830 830 829 829 828 827
800 799 799 800 802 803 804 805 807 808 809 810 812 814 817 820 821 821 821 821 821 822 823 823 824 824 825 825 826 826 827 827 828 830 831 832 833 833 833 834 834 834 834 835 835 834 834 833 833 833 833 833 834 834 834 835 835 836 836 837 838 838 838 839 838 836 835 835 835 836 835 834 835 834 829 824 825 827 828 829 829 828 828 827 826
799 799 799 800 801 801 802 803 805 806 807 808 810 812 814 816 818 818 819 820 820 820 820 821 821 822 823 823 823 823 824 824 825 827 829 830 831 831 832 831 831 831 831 831 832 832 832 831 831 830 830 830 830 830 830 831 832 833 834 834 834 835 835 835 834 833 833 834 834 834 833 833 835 836 830 825 825 827 827 828 828 827 828 827 826
798 798 798 799 800 800 801 802 803 804 805 806 808 809 810 812 813 814 816 817 818 818 818 818 819 820 820 821 821 821 822 822 823 824 826 827 828 829 830 830 829 829 828 828 829 829 829 829 829 828 827 828 828 828 828 829 830 830 830 831 831 831 831 831 831 831 832 833 833 833 832 832 833 834 830 826 826 827 827 827 826 826 826 826 826
798 798 798 798 799 799 799 800 801 802 803 804 806 806 808 809 810 811 813 815 816 817 817 817 817 818 818 819 819 820 821 821 821 822 823 824 825 826 827 827 827 827 827 826 827 827 827 828 828 827 827 826 826 826 827 827 828 827 827 827 827 828 828 827 827 828 829 831 832 831 831 830 830 830 828 826 826 826 826 826 826 825 825 824 825
797 797 797 797 797 798 798 799 800 801 802 803 804 804 805 806 807 809 810 812 813 814 816 816 816 816 816 817 818 820 821 820 821 822 822 822 823 823 824 825 825 826 826 826 826 825 825 826 826 826 826 825 824 824 825 826 826 825 825 825 825 825 825 824 824 825 826 827 828 828 828 827 827 827 825 825 825 825 826 826 825 825 824 823 823
797 797 796 796 796 796 797 798 799 800 801 802 803 804 804 805 806 807 808 809 810 810 813 816 817 816 816 817 817 818 819 819 821 821 821 821 822 822 822 822 822 823 824 825 825 824 824 824 824 823 824 823 822 822 823 823 823 823 823 822 822 822 822 822 822 824 824 824 824 825 825 824 824 823 823 823 824 824 824 825 825 824 823 822 821
800 799 799 798 796 796 796 796 797 799 800 801 802 803 803 804 805 805 805 806 807 808 810 814 817 816 815 816 816 817 816 817 819 820 820 820 820 820 821 820 820 819 819 821 822 822 822 821 821 821 821 820 819 819 820 821 821 821 821 821 820 820 820 820 821 822 823 822 822 822 822 822 821 821 821 821 822 823 823 824 824 823 823 822 821
803 802 801 800 798 797 797 797 797 799 800 800 801 801 801 801 802 802 803 804 806 806 807 811 815 816 814 814 814 815 815 815 815 817 818 818 818 819 819 819 818 817 816 816 818 820 819 817 818 819 818 817 817 817 818 818 818 819 819 819 819 818 818 818 819 819 819 820 820 820 820 820 820 819 820 820 821 822 822 823 823 823 822 822 821
805 804 803 802 800 800 800 800 799 800 800 800 800 801 800 799 798 800 802 804 805 806 806 808 812 814 814 813 812 813 814 814 814 815 815 816 817 817 818 818 818 816 814 814 814 815 815 814 814 815 814 814 815 815 815 815 816 816 816 816 816 815 815 816 816 817 817 818 819 819 819 819 819 819 818 819 819 821 822 822 822 822 822 822 822
807 806 805 805 803 803 802 802 801 801 800 800 800 803 803 800 798 799 802 804 805 806 805 807 810 812 812 811 811 813 813 812 812 812 813 814 815 815 816 816 816 816 814 813 813 813 813 813 813 812 811 812 812 812 813 813 813 814 814 814 813 813 813 813 813 815 817 816 817 818 819 819 820 819 818 819 819 820 821 822 822 822 822 823 823
810 809 808 806 806 805 805 804 803 802 802 803 804 805 804 802 800 801 803 803 803 804 804 805 808 810 810 810 811 812 813 812 811 811 812 813 814 814 814 814 815 815 814 814 813 813 812 813 812 810 809 809 809 809 810 810 810 811 811 810 810 810 810 810 810 811 813 813 813 815 816 818 819 819 819 820 820 819 819 821 821 822 823 823 824
813 811 810 809 808 808 807 807 806 806 806 807 807 807 806 804 803 803 804 804 802 802 803 805 808 810 810 810 811 812 813 813 812 811 812 812 813 814 814 814 814 815 815 814 813 812 811 812 811 809 807 806 806 806 806 807 807 806 806 806 807 807 807 808 807 808 809 810 811 812 813 815 817 818 819 821 822 820 820 821 821 822 823 823 824
815 814 813 812 811 811 810 809 809 809 809 809 809 809 808 807 806 806 806 805 802 801 802 805 807 809 810 811 812 813 814 813 812 812 812 813 813 813 813 813 814 815 815 814 812 811 811 810 809 807 805 804 803 802 802 802 802 801 801 802 804 804 805 805 805 805 807 808 809 810 812 813 815 816 817 820 821 821 821 822 822 822 822 823 824
817 817 816 816 815 814 813 812 811 811 812 812 811 811 811 810 809 808 806 805 802 801 802 805 807 808 810 812 814 815 814 814 813 812 812 813 813 813 813 814 815 815 815 813 811 810 810 808 807 805 803 802 800 799 798 797 797 797 798 799 801 801 802 802 802 802 804 805 805 807 810 812 813 814 815 817 819 821 821 822 823 823 823 824 824
819 819 818 818 817 817 816 815 814 814 814 813 812 812 811 810 810 809 808 807 805 804 805 807 808 810 812 813 814 815 814 813 813 813 813 813 813 813 814 814 814 814 813 812 810 809 808 806 804 803 801 799 798 796 795 793 793 793 794 796 797 797 797 797 797 798 799 801 802 805 807 809 812 813 814 815 818 821 822 823 823 823 824 825 825
821 821 820 820 819 819 818 818 817 816 816 815 814 813 813 812 812 812 812 811 811 810 811 811 812 813 813 814 814 814 813 814 814 814 814 814 813 813 813 813 813 812 810 809 808 807 806 805 803 801 800 798 797 796 794 792 791 790 791 792 793 794 794 793 793 793 794 797 800 802 804 807 809 812 814 817 819 821 822 824 824 824 825 826 826
822 822 822 821 821 821 820 820 820 819 818 817 817 816 815 815 815 815 815 815 815 814 814 814 814 814 815 815 815 815 815 815 814 814 814 814 813 813 812 812 811 810 809 808 807 806 805 803 802 801 800 798 797 796 794 793 791 790 790 790 790 791 791 791 791 792 792 794 797 800 803 806 809 812 815 818 820 822 823 824 824 825 826 826 826
824 824 824 823 823 823 822 822 822 821 821 820 819 819 819 819 818 818 818 818 817 817 817 816 816 816 815 815 816 816 817 816 815 815 814 814 813 812 811 811 810 809 808 808 806 805 804 802 801 801 800 799 798 797 796 795 793 791 790 790 790 790 791 791 792 794 794 795 798 802 805 807 810 813 816 819 821 823 825 825 825 825 826 825 825
826 826 825 825 825 825 824 824 824 824 824 823 822 822 822 822 822 821 820 820 819 819 818 818 818 818 817 817 817 817 817 817 816 816 815 814 813 812 811 810 809 809 808 807 806 805 803 803 802 801 800 800 799 798 797 796 794 793 792 791 791 792 792 793 795 798 799 798 800 804 808 810 813 816 818 820 822 824 825 825 826 826 826 826 825
827 827 826 826 826 826 825 826 826 825 825 825 825 825 824 824 823 823 822 822 821 820 820 820 820 819 819 819 819 819 819 818 817 816 815 814 813 812 811 810 809 808 807 806 806 805 804 803 802 801 801 800 800 799 799 797 796 796 795 795 794 794 795 797 799 803 805 803 803 806 809 812 815 818 819 820 823 824 826 827 827 827 827 826 826
829 828 828 828 828 827 827 827 827 827 827 827 827 827 827 826 825 825 824 824 823 822 822 821 821 821 821 821 820 820 819 818 817 816 815 814 813 812 811 810 808 807 807 806 806 805 804 804 803 802 802 801 801 801 800 799 799 798 798 799 799 798 799 801 803 807 809 807 806 809 812 814 817 819 820 822 824 825 826 827 827 827 827 826 827
831 830 830 830 829 829 828 828 828 828 828 827 827 827 827 827 827 827 826 825 825 824 824 823 823 822 822 822 821 821 820 818 817 816 815 814 814 813 811 810 809 808 807 807 806 806 805 805 804 804 803 803 802 802 801 801 801 801 801 802 803 802 803 804 807 810 812 811 811 813 816 817 819 820 821 823 824 825 826 826 826 827 827 827 827
832 832 831 831 830 830 829 829 828 828 828 828 828 827 827 827 827 827 828 827 827 826 825 825 825 824 823 823 822 821 820 819 818 817 816 815 814 813 812 811 810 809 809 808 808 808 807 806 807 806 806 806 805 804 804 803 803 803 803 805 806 806 806 808 809 812 814 814 815 816 818 819 820 821 821 822 822 823 824 825 826 827 827 827 827
833 832 832 831 831 831 830 829 829 829 828 828 828 827 827 826 826 827 827 826 827 827 827 826 826 825 825 824 823 822 821 820 819 818 816 815 815 814 813 813 812 811 811 811 811 810 810 810 810 810 809 809 808 808 807 806 806 805 806 807 808 808 809 811 812 814 815 816 817 818 820 821 821 821 821 821 821 821 822 823 825 826 827 827 827
833 832 832 832 831 831 831 830 829 829 828 828 827 827 826 826 826 826 826 826 826 826 827 827 827 826 826 825 824 823 822 821 820 819 817 816 815 815 814 814 814 813 812 812 813 813 813 812 812 812 812 811 811 810 810 809 809 808 808 808 809 810 812 813 815 815 816 817 818 820 821 822 823 823 822 822 822 822 822 823 824 825 826 827 827
832 832 832 832 831 831 831 830 830 829 829 828 827 827 826 825 825 825 825 826 826 826 827 827 827 827 826 826 825 824 823 822 821 820 819 817 816 816 815 815 815 815 814 815 815 815 815 815 815 814 814 814 813 812 811 811 811 811 811 811 812 812 814 815 816 816 817 818 820 821 822 823 823 823 823 823 823 824 824 824 824 825 826 826 826
832 832 831 831 831 831 830 830 829 829 828 827 827 826 825 825 824 824 824 824 825 825 826 826 826 826 826 826 826 825 824 823 822 821 820 819 818 817 817 817 817 816 816 817 817 817 817 817 817 817 817 816 816 815 814 814 814 814 814 814 814 815 815 816 817 818 818 819 820 821 822 823 824 823 823 824 824 825 825 825 825 825 825 825 825
832 831 831 831 831 830 830 830 829 828 828 827 826 825 825 824 824 824 823 823 824 824 825 825 825 825 825 825 826 825 824 824 823 822 822 821 820 819 819 818 819 819 819 819 819 819 819 819 820 819 819 819 819 819 818 818 818 817 817 818 818 818 818 819 820 820 821 821 822 822 823 823 824 824 824 825 826 826 826 826 826 825 824 824 823
830 830 830 830 830 830 829 829 828 828 827 826 825 825 824 823 823 823 823 823 823 823 823 823 824 824 825 826 826 825 824 824 824 823 823 823 822 821 821 821 821 821 822 822 821 821 821 821 821 821 821 821 821 821 821 821 821 821 821 821 821 821 822 822 823 823 823 824 824 824 824 824 825 826 826 826 827 827 826 826 826 825 824 824 823
829 828 828 828 829 829 828 827 827 827 826 826 825 824 824 823 822 822 823 823 823 823 823 823 823 824 825 826 826 825 825 824 825 825 825 824 824 824 823 823 823 824 824 824 824 824 823 823 823 823 823 823 823 823 823 823 823 823 824 824 824 824 824 824 825 825 825 825 825 825 825 826 826 827 827 827 827 826 826 826 825 825 824 824 823
828 828 827 827 828 827 827 826 825 825 825 826 825 823 823 823 822 822 822 822 822 823 823 823 823 825 826 826 826 826 825 825 825 826 826 826 826 826 826 826 826 826 826 826 826 826 826 825 825 825 825 825 825 825 825 825 825 825 826 826 826 826 826 826 826 827 827 827 827 827 827 827 827 827 827 826 826 826 826 825 825 824 824 823 823
829 828 827 826 826 826 825 825 824 824 824 825 824 823 823 822 822 822 822 822 822 822 822 823 824 825 825 826 826 826 826 826 826 826 826 827 827 827 827 828 828 828 828 828 828 828 828 827 827 827 827 827 827 826 826 827 827 827 827 827 828 828 828 828 828 828 828 827 827 827 826 826 826 825 825 825 825 825 825 825 825 825 824 824 823
829 828 827 826 825 825 824 824 823 823 823 823 822 822 822 822 821 821 821 821 821 821 821 823 824 824 825 826 826 826 826 826 827 827 827 828 828 828 828 828 829 829 829 829 829 829 829 829 829 829 829 828 828 828 828 828 828 828 828 828 829 829 829 829 829 828 828 828 827 827 826 826 826 825 825 825 825 825 825 825 825 825 824 824 824
828 827 826 825 824 824 823 823 822 822 822 821 821 821 821 821 820 820 820 821 821 821 821 822 823 824 825 825 825 825 825 826 826 827 828 829 829 828 828 829 829 830 830 830 830 830 830 830 830 830 830 830 830 830 830 829 829 829 829 829 830 830 830 829 829 829 828 828 827 827 827 826 826 826 826 825 825 825 825 825 825 824 824 824 823
827 826 825 824 823 823 822 821 821 821 821 820 820 820 820 820 819 819 819 820 820 820 821 822 822 823 824 824 825 824 825 826 827 827 828 829 829 829 829 830 830 830 830 831 831 831 831 831 831 831 831 831 831 831 830 830 830 830 830 830 831 831 830 830 830 830 830 829 828 827 827 827 826 826 826 826 825 825 825 824 824 824 824 823 823
825 824 823 823 822 821 821 820 820 820 819 819 818 818 818 818 818 818 818 819 819 820 820 821 822 822 822 823 823 824 825 826 827 828 828 829 829 830 830 830 830 831 831 831 831 831 831 831 831 831 831 832 831 831 831 831 830 830 831 831 831 831 831 831 830 830 830 830 829 828 828 827 827 827 826 826 826 825 824 824 824 824 824 824 823
824 823 823 822 821 820 820 820 819 819 818 818 817 817 817 817 817 817 818 818 819 819 819 820 821 821 821 822 823 824 825 826 826 827 829 829 830 830 831 831 831 831 831 831 832 831 831 832 831 831 832 832 832 832 832 831 831 831 831 831 831 831 831 831 830 830 830 830 829 829 828 828 827 827 826 826 826 825 824 824 824 824 824 824 824
823 822 822 821 820 820 819 819 818 818 817 816 816 816 816 816 816 817 817 817 818 818 819 820 820 821 821 822 823 824 825 826 826 828 829 830 830 831 831 831 831 831 831 831 832 832 832 832 832 832 832 832 832 832 832 832 832 832 832 831 831 830 830 830 831 830 830 829 829 829 828 828 828 827 827 826 826 825 825 824 824 824 824 824 823
823 822 821 820 820 819 818 818 817 817 816 815 815 815 815 815 816 816 816 816 817 817 818 819 819 820 821 822 823 824 825 826 827 828 828 829 830 830 831 831 831 831 831 831 831 832 832 832 832 832 832 833 833 832 832 832 832 833 832 831 831 831 831 831 830 830 829 829 829 829 829 828 828 827 827 826 826 826 825 825 824 824 824 824 823
823 822 821 821 820 819 818 818 817 816 815 815 815 814 815 815 815 815 815 815 816 817 817 818 818 819 820 821 822 824 825 825 826 827 828 829 830 830 830 831 831 831 831 831 831 831 832 832 832 832 832 833 833 833 832 832 833 833 832 832 831 831 831 831 830 830 829 829 829 829 829 828 828 827 826 826 825 825 825 825 824 824 824 823 823
823 822 822 821 820 819 818 818 817 816 816 815 815 814 814 814 815 815 815 815 815 816 817 818 818 819 820 821 822 823 824 825 826 827 828 829 830 830 831 831 831 831 832 832 831 831 831 831 831 832 833 833 833 833 833 833 833 832 832 832 831 831 831 831 830 830 829 829 829 829 829 828 828 827 827 826 825 825 825 825 825 824 824 823 823
Wind_Speed
21 20 20 19 19 18 18 18 18 18 17 17 17 16 16 15 15 14 14 14 14 13 13 13 13 12 12 11 12 12 12 11 11 11 11 11 11 11 10 9 9 10 10 10 11 10 10 10 11 11 11 11 11 11 11 11 10 11 10 10 10 10 9 9 9 10 10 8 8 9 7 6 6 4 5 7 7 6 6 6 6 7 8 7 6
20 19 18 18 19 18 18 17 17 18 18 18 18 18 17 16 15 15 14 14 14 14 14 14 14 14 13 13 12 12 12 11 11 11 11 11 12 12 12 11 11 11 11 11 11 11 11 11 11 11 12 12 12 12 12 12 11 11 11 10 10 10 9 9 10 10 9 7 8 9 7 7 7 5 6 8 7 7 7 7 7 7 7 8 8
18 17 17 17 18 18 17 17 17 18 18 19 20 19 18 17 16 16 15 15 15 15 14 14 14 14 15 14 13 13 13 12 12 12 12 12 12 12 12 12 12 12 12 12 12 12 12 12 12 12 12 11 11 12 12 12 12 11 11 10 10 10 8 8 8 9 9 8 7 9 8 6 7 7 7 7 7 7 7 8 8 8 7 9 9
17 17 16 16 17 17 17 17 17 18 18 19 20 20 19 18 17 17 17 16 15 15 15 15 14 14 15 15 15 15 14 14 14 13 13 13 14 13 13 13 13 13 13 12 12 12 12 12 12 12 12 11 11 11 11 11 11 11 11 10 10 10 9 8 8 8 9 9 8 9 8 7 8 8 7 7 7 7 7 8 8 8 8 10 11
16 16 16 16 16 17 17 17 17 18 18 18 19 20 20 19 18 18 17 17 16 16 15 15 15 15 15 16 16 16 15 15 15 15 15 14 14 14 14 13 14 14 14 13 12 12 13 13 13 12 12 12 12 12 11 11 11 11 11 10 10 10 9 9 9 9 9 10 10 9 9 9 9 8 7 7 7 7 7 7 7 7 8 9 11
17 17 17 16 16 17 17 17 17 17 18 18 19 19 19 19 19 18 18 18 18 17 16 16 16 16 17 16 16 16 16 15 15 15 15 15 15 15 14 14 14 14 14 14 14 13 13 13 13 13 13 13 13 12 11 10 11 11 11 10 10 10 9 10 10 10 10 11 11 11 11 10 9 8 6 6 7 8 7 7 7 6 7 9 11
18 18 17 17 17 18 19 19 18 18 17 17 17 19 19 19 20 19 18 18 18 18 17 17 16 16 17 17 17 16 16 15 15 15 15 15 15 15 15 14 14 15 15 15 15 14 14 14 14 14 13 13 13 12 12 11 11 11 11 10 10 11 12 12 11 11 12 13 13 12 11 10 9 9 7 5 6 7 6 6 7 6 6 7 9
18 18 18 19 19 20 19 18 18 17 15 14 15 16 18 18 19 19 18 18 19 18 18 17 17 16 17 17 17 16 16 15 15 15 15 15 15 15 15 15 15 15 15 15 15 15 15 15 15 15 14 14 13 13 12 11 10 11 11 11 11 11 12 12 11 11 12 13 12 11 11 11 10 9 7 7 7 6 6 6 7 7 7 6 7
16 17 18 19 19 19 17 16 16 16 16 18 18 18 19 19 18 18 18 18 18 18 18 17 17 16 16 16 16 16 16 16 15 15 15 15 15 15 15 15 15 15 15 15 15 16 16 15 15 15 14 13 13 14 14 13 13 13 12 12 10 9 12 13 11 8 9 11 11 9 9 13 15 13 9 7 7 6 6 7 8 8 8 7 7
15 16 18 20 19 18 16 16 17 17 18 21 21 19 19 20 19 17 17 17 17 17 18 17 17 17 16 16 16 16 16 16 15 16 17 15 14 14 14 14 14 14 15 15 15 16 16 16 16 15 15 15 15 18 18 17 16 16 15 14 13 11 13 14 11 8 8 10 11 9 7 10 19 20 12 7 7 7 6 7 8 8 8 8 6
13 13 16 18 17 16 16 17 18 17 17 18 17 17 19 20 20 18 15 16 17 17 17 18 18 17 17 16 17 17 16 15 16 18 18 16 15 14 14 14 14 14 15 16 16 17 17 17 16 16 16 17 18 20 20 19 18 18 18 18 17 16 15 14 12 10 10 10 11 11 9 8 17 24 16 7 7 7 5 7 7 7 7 7 7
13 11 12 13 14 14 14 16 17 17 17 18 18 20 21 21 21 20 18 17 18 18 18 18 18 18 17 17 17 17 16 16 18 19 18 16 15 15 15 16 16 15 15 16 17 17 17 17 17 16 16 16 16 17 19 20 20 20 21 20 19 18 18 17 16 14 12 12 12 12 11 8 13 22 18 7 5 6 6 7 8 7 6 7 8
11 11 10 11 12 13 13 14 16 18 20 20 19 21 22 20 19 19 20 19 18 17 17 18 17 17 17 17 17 17 17 16 16 16 16 16 15 14 14 15 16 17 18 19 18 17 16 17 17 17 16 15 13 14 16 17 19 20 21 21 21 20 20 19 20 18 16 15 13 13 13 10 13 19 13 5 5 7 7 9 8 8 8 7 6
7 9 10 10 11 12 13 15 16 18 19 19 18 20 22 22 20 18 19 19 18 17 16 15 15 14 13 14 14 14 13 12 13 14 15 15 14 13 13 13 15 17 19 19 19 17 16 16 16 17 17 15 13 12 13 14 16 17 18 19 18 18 19 19 19 19 19 18 17 18 18 14 15 15 9 5 7 7 7 9 9 9 9 6 3
8 7 8 11 12 12 13 14 15 17 19 18 18 19 19 20 19 16 17 18 17 15 14 13 13 13 13 12 12 13 11 8 8 12 14 14 13 12 12 12 14 16 18 18 18 17 18 19 19 19 18 16 14 14 15 14 13 14 15 15 16 16 17 18 17 16 18 20 20 20 20 16 14 12 7 5 6 6 7 8 8 8 8 5 1
16 14 12 10 11 12 14 14 14 16 18 17 18 18 17 16 15 14 15 17 16 13 11 11 12 14 14 12 12 12 11 9 10 10 12 13 15 14 12 10 12 14 16 18 18 17 19 22 22 22 20 17 15 17 19 17 14 14 15 15 16 16 15 17 19 19 18 18 17 17 18 16 14 12 10 8 7 6 6 7 7 6 6 5 3
17 17 17 15 10 6 7 9 10 12 14 15 17 18 17 15 13 11 12 13 11 9 7 7 10 11 12 11 9 9 11 13 14 14 13 12 11 12 11 11 12 13 15 17 19 20 22 21 20 21 20 17 16 17 19 19 17 16 15 16 16 16 15 15 17 19 21 20 19 19 18 17 15 13 11 9 8 6 5 6 7 5 4 5 5
15 15 18 19 17 12 8 5 1 2 5 8 12 15 16 15 12 10 11 10 9 8 8 7 8 8 8 9 8 7 8 10 11 11 10 9 7 6 7 8 10 12 14 16 19 21 20 19 20 21 19 16 15 16 18 19 17 15 15 16 17 17 17 14 13 15 19 22 21 19 17 15 12 11 10 8 7 5 5 6 5 4 5 5 5
16 16 18 22 22 19 17 14 10 7 6 4 1 5 9 12 12 8 7 7 6 6 7 7 7 7 6 7 8 7 8 9 10 10 10 10 9 6 6 7 9 11 13 15 17 19 17 16 18 19 17 16 16 16 18 20 18 16 15 17 18 19 18 17 16 15 15 16 16 14 13 11 7 6 7 6 6 5 2 3 3 4 5 3 4
20 19 19 22 25 25 23 21 19 16 13 10 7 4 0 6 9 7 6 7 5 4 5 5 3 4 4 4 4 4 4 6 7 8 8 9 9 8 6 8 11 12 12 13 16 18 17 17 17 16 13 13 14 15 17 20 21 19 18 18 19 20 18 18 19 19 14 10 9 9 9 8 6 6 5 4 4 5 4 1 2 2 2 2 2
20 21 21 22 25 25 24 23 23 22 18 14 11 9 6 4 6 4 5 6 6 5 3 3 1 0 1 1 1 2 3 3 5 7 7 8 9 8 6 7 11 13 13 13 15 16 17 18 17 15 12 12 14 16 17 19 21 22 21 22 23 23 20 18 18 20 18 12 10 11 10 9 8 6 6 5 4 5 6 5 6 6 4 2 1
16 18 20 21 21 22 21 21 20 20 18 15 13 12 10 8 6 3 3 5 7 7 5 4 3 2 1 1 1 2 3 3 3 4 5 5 6 6 4 7 11 12 13 13 14 14 15 15 15 17 17 18 19 21 22 23 24 25 26 25 24 25 25 22 20 21 20 15 14 14 13 12 9 6 7 6 6 8 8 8 8 8 8 6 4
13 14 16 17 18 19 19 18 16 15 14 12 10 10 11 10 9 6 4 6 9 12 11 9 7 5 5 4 3 2 2 2 1 1 1 1 2 2 1 3 6 8 9 10 10 11 12 13 14 16 19 20 21 23 26 27 27 28 28 26 24 24 25 24 22 22 20 17 16 15 13 13 12 11 11 9 8 10 11 10 10 10 9 8 7
12 13 13 13 15 16 18 18 16 14 12 11 10 10 11 12 12 11 10 11 13 15 14 12 10 10 9 8 7 6 6 6 5 5 4 4 4 3 2 2 3 4 6 7 7 8 10 12 14 16 17 18 19 20 23 26 28 29 27 24 23 23 25 26 26 23 21 20 20 19 16 15 14 14 15 14 13 13 12 12 11 11 10 9 8
12 13 13 12 13 13 15 17 17 16 14 13 13 12 12 12 14 15 16 15 14 15 14 12 12 12 11 10 10 9 9 8 7 7 7 6 6 5 5 4 5 6 7 7 7 8 10 12 15 18 18 16 16 16 16 17 21 24 24 22 21 22 25 29 28 24 23 22 22 21 19 17 17 16 17 17 15 13 12 11 10 9 8 8 7
12 12 12 13 13 14 14 14 15 16 15 14 15 15 14 13 12 13 15 14 13 13 13 11 11 11 11 11 10 9 8 8 7 7 8 8 7 7 7 7 8 9 9 9 9 9 11 12 14 16 15 13 13 12 12 12 13 15 18 20 20 20 24 29 29 28 27 25 23 22 20 20 21 20 19 17 14 12 9 8 7 7 6 5 4
10 11 12 12 12 14 14 14 14 15 15 14 14 16 18 17 13 12 12 12 11 12 11 11 10 9 9 9 9 8 8 8 8 8 8 9 8 8 7 8 8 9 10 11 11 11 10 9 10 12 13 12 11 11 10 10 9 8 9 11 12 13 16 21 25 26 26 25 24 24 24 24 23 20 17 13 11 10 7 5 6 6 4 3 2
10 10 10 10 11 11 12 12 13 14 16 16 15 14 14 15 15 14 13 11 10 10 10 11 11 10 9 9 8 7 7 8 9 9 9 9 9 9 7 7 8 9 9 10 11 9 7 7 7 7 8 9 8 7 7 8 7 5 4 2 3 3 4 9 13 16 21 26 26 25 24 23 20 17 14 12 10 9 7 6 6 6 4 3 3
9 9 8 9 8 8 9 10 10 11 13 16 17 16 14 13 12 13 14 12 10 9 9 9 9 9 9 9 7 6 5 6 8 10 11 11 12 11 9 8 8 8 7 9 9 8 6 5 6 4 5 6 6 6 6 6 6 7 7 5 5 8 11 14 16 18 23 28 28 24 20 18 16 14 13 12 11 9 8 8 7 6 5 4 4
7 8 8 8 8 7 7 8 9 8 8 10 12 14 15 15 13 13 13 14 13 11 11 10 10 10 9 8 8 7 6 7 9 10 12 12 13 12 11 9 8 7 7 6 7 7 5 5 4 4 5 5 6 6 6 7 8 9 11 11 13 16 19 20 21 20 20 24 24 21 18 16 15 14 13 12 11 9 8 8 7 6 6 6 5
7 7 7 8 8 7 7 7 7 7 7 7 7 8 10 12 13 13 13 13 13 13 13 13 13 13 11 10 10 10 9 10 10 11 11 12 13 13 11 9 8 8 8 6 5 5 5 4 3 4 4 5 6 7 7 8 9 11 12 14 16 20 22 23 22 19 17 19 20 18 16 15 14 13 12 11 9 8 7 6 6 6 7 7 7
6 6 7 7 7 7 6 6 5 5 5 5 4 4 5 7 9 10 11 11 12 12 13 14 14 14 13 12 11 11 11 11 11 11 11 11 12 13 12 11 10 9 8 6 5 4 4 4 4 5 5 5 6 6 8 9 10 11 13 15 16 20 21 21 20 18 17 18 19 17 14 13 13 11 11 9 8 6 5 5 6 7 8 8 8
6 6 5 5 5 5 5 5 5 4 4 3 3 2 2 2 4 6 7 9 10 10 11 12 12 12 12 12 12 12 12 12 11 11 10 10 11 11 11 13 13 11 9 8 7 6 6 6 7 7 7 6 6 7 8 10 10 12 14 15 16 19 20 19 19 18 16 16 16 14 12 11 11 10 10 9 6 4 3 4 5 7 8 9 9
4 5 5 4 4 4 4 4 3 3 3 2 2 1 1 2 2 2 3 4 6 7 7 8 9 9 10 11 11 12 12 12 11 10 10 10 10 9 10 12 13 13 13 13 11 9 9 9 8 8 7 7 7 7 7 9 10 12 14 15 16 19 20 19 18 18 17 15 14 12 10 9 8 8 8 7 5 3 3 3 4 5 7 8 8
2 3 4 4 3 3 4 4 3 3 2 2 2 2 1 0 0 0 0 1 2 3 4 4 6 7 9 9 11 12 12 11 11 10 10 9 9 9 9 10 10 12 13 14 13 11 11 10 10 9 9 9 8 9 10 10 11 13 16 17 18 19 19 17 16 15 15 14 13 11 9 8 6 5 5 5 4 3 3 3 2 3 5 6 8
2 1 2 3 2 3 3 3 3 3 3 3 3 3 2 2 2 1 1 1 1 1 1 1 2 4 7 8 10 11 11 11 10 10 10 11 11 10 9 9 10 10 12 12 12 12 12 11 11 11 11 11 11 12 13 14 14 16 17 18 18 18 17 16 15 14 14 14 13 11 9 7 6 5 5 5 4 3 3 3 2 2 3 5 7
3 3 2 2 2 3 3 2 2 3 3 3 3 3 3 3 2 2 2 2 1 1 1 1 1 0 3 6 8 9 9 10 10 11 11 12 13 12 11 11 11 11 11 11 11 11 11 10 10 10 11 11 12 12 13 14 15 16 16 16 16 15 15 14 14 13 13 13 12 10 8 7 6 6 6 5 4 4 4 3 3 3 3 5 7
4 4 3 3 3 3 3 3 3 3 3 3 3 3 4 3 3 3 3 3 2 3 2 2 3 2 1 3 5 6 6 6 7 8 9 10 10 10 10 11 11 11 11 11 11 10 10 10 9 9 10 11 11 11 11 12 13 13 13 14 14 14 13 13 12 11 10 10 9 8 7 7 7 7 7 5 4 4 4 5 5 5 5 6 6
5 5 5 4 3 4 4 5 5 4 4 4 3 3 4 4 4 4 4 4 4 4 4 3 3 3 2 3 4 4 4 4 5 6 7 8 8 8 9 9 9 10 10 10 10 10 10 10 10 10 10 10 10 10 10 10 10 11 12 12 12 12 11 11 11 10 10 9 8 8 8 7 7 6 5 4 4 4 5 5 6 6 6 6 4
7 6 5 5 5 6 6 7 7 6 5 5 4 4 4 4 4 4 4 5 4 4 4 4 3 2 2 2 2 3 3 3 4 5 6 6 7 7 8 7 7 8 8 8 8 9 9 10 10 10 10 10 10 10 10 10 10 10 10 10 10 10 10 10 10 10 9 9 8 8 7 6 6 5 5 4 4 5 5 5 5 5 4 4 3
9 8 6 6 7 8 8 9 9 7 6 6 6 5 5 4 4 4 4 5 4 4 4 4 3 2 3 2 2 2 2 2 3 4 4 5 6 6 6 6 6 6 6 6 7 7 8 9 9 9 9 9 9 9 10 9 9 9 9 9 9 9 9 9 8 8 8 7 6 7 7 6 6 5 5 5 5 4 4 4 4 4 3 3 3
9 9 8 8 8 8 9 10 10 8 8 8 7 7 6 5 5 5 4 5 5 5 4 4 4 4 5 4 5 4 2 1 3 3 4 4 5 5 5 5 5 5 5 5 6 6 6 7 7 7 7 8 8 8 8 7 7 8 8 8 7 7 7 7 7 7 7 6 6 7 7 7 7 6 4 4 3 3 3 3 3 4 3 3 3
9 10 9 9 9 9 9 10 10 10 10 10 9 8 8 8 8 7 6 6 6 6 6 5 5 6 6 6 6 5 2 1 1 2 2 3 4 4 4 4 5 4 4 4 4 4 4 4 4 5 6 7 7 7 6 6 6 6 6 6 7 7 6 6 6 6 6 6 5 5 5 5 4 3 3 2 2 1 1 2 2 2 3 3 3
10 10 10 9 9 9 9 9 10 10 10 10 10 9 9 10 10 9 8 8 8 7 7 5 5 6 6 7 6 3 3 2 2 1 0 1 2 3 3 3 3 3 3 3 4 4 3 3 3 4 5 6 6 6 6 6 6 6 5 5 5 6 7 7 7 7 7 6 5 4 4 3 3 2 2 1 1 1 1 1 1 2 2 3 3
10 10 10 10 9 10 9 9 10 10 10 11 11 11 11 12 12 11 10 9 8 8 7 5 5 6 6 6 5 5 4 3 3 2 2 1 1 1 1 1 1 1 1 2 2 3 3 2 2 2 3 3 4 4 5 6 6 6 6 5 4 5 6 7 7 7 7 6 5 4 3 3 2 2 2 2 2 2 1 1 2 2 2 3 3
10 10 10 10 10 10 10 10 10 10 11 12 12 12 12 12 11 11 10 9 9 9 8 6 6 6 6 6 6 5 5 4 4 3 3 3 2 1 1 0 0 1 1 1 1 2 2 2 1 1 1 1 1 2 4 6 7 7 7 6 5 5 6 6 6 6 5 4 4 3 3 3 2 2 3 3 2 2 2 2 2 2 3 3 3
8 9 10 10 10 10 10 11 11 11 11 12 12 12 12 11 10 10 9 8 9 9 8 7 7 7 7 6 6 5 5 5 5 4 4 3 2 2 1 1 0 0 1 1 1 2 2 1 1 1 1 1 1 3 4 5 6 6 7 7 6 7 6 4 4 4 4 3 3 3 3 3 2 2 2 2 2 2 2 2 2 2 3 3 3
7 8 8 8 9 10 10 10 11 11 11 12 12 12 12 12 11 10 9 8 8 8 8 7 7 7 7 6 6 6 6 5 5 4 4 3 3 2 1 1 1 2 2 2 2 3 2 2 2 2 2 2 2 4 5 5 4 4 6 7 8 8 4 3 2 3 2 2 2 2 2 2 2 2 2 3 3 2 2 2 2 2 3 3 4
7 7 7 8 8 9 9 10 10 10 10 11 11 11 11 11 11 10 10 9 9 8 7 7 8 8 7 7 7 7 6 6 5 5 4 3 3 2 2 1 1 3 3 4 4 4 3 3 3 3 3 3 3 4 5 5 4 4 4 5 6 5 4 3 3 4 4 3 3 3 2 2 2 2 2 3 3 3 3 3 3 3 4 4 4
5 6 7 7 8 8 9 9 9 9 9 10 10 10 10 10 9 9 9 10 9 8 8 8 9 9 8 8 8 8 7 7 6 6 5 4 3 3 3 2 2 3 4 5 5 5 4 4 4 4 4 4 4 4 4 4 3 3 2 2 3 3 4 4 5 5 4 3 2 2 3 3 3 3 3 3 3 3 3 4 4 4 4 4 4
4 5 6 6 6 7 7 8 8 8 8 8 9 9 9 9 9 8 8 9 9 8 7 7 7 6 5 7 8 8 7 7 6 5 5 4 4 3 3 3 3 4 5 5 5 5 5 4 5 5 5 4 4 3 2 2 1 1 2 1 2 3 4 5 6 6 5 5 3 3 3 3 3 4 4 3 3 3 3 4 4 4 4 4 4
Wind_Direction
208 207 208 210 212 213 214 215 217 220 220 220 219 219 218 217 219 218 217 218 217 215 216 216 216 217 221 223 222 223 224 226 228 227 228 230 233 240 244 241 242 247 250 251 253 255 255 256 260 263 265 267 269 269 267 263 256 256 260 259 260 261 258 259 266 276 281 288 297 294 297 301 284 280 301 300 306 312 301 288 285 298 310 311 301
208 208 208 211 213 216 217 217 218 221 222 222 221 221 221 220 220 221 219 218 216 218 218 216 216 217 219 221 221 223 223 225 230 231 232 232 234 240 242 241 243 248 251 250 251 253 252 253 257 259 260 260 262 265 265 265 262 259 259 259 262 265 261 259 266 275 280 281 285 283 281 284 285 292 301 300 304 305 301 300 297 298 308 320 315
206 205 206 210 213 217 220 221 221 222 223 225 224 224 223 220 219 220 222 220 216 217 219 219 217 217 219 219 218 221 222 224 229 233 233 235 237 242 246 246 247 249 251 250 250 250 249 251 254 256 258 258 259 264 266 266 265 264 264 264 267 270 268 260 259 270 278 279 280 280 277 275 283 290 295 298 299 295 295 300 302 309 314 315 315
203 202 204 208 213 217 221 224 226 226 226 226 226 226 226 223 220 219 221 222 219 216 216 219 219 216 218 220 218 220 223 225 228 231 232 233 236 241 245 248 248 249 251 252 251 250 250 252 253 254 257 258 259 262 265 266 264 261 262 262 264 269 269 258 251 261 273 277 274 274 277 278 278 283 289 293 294 286 288 297 300 309 314 312 314
202 203 204 207 212 217 221 224 227 228 229 230 230 229 228 226 223 220 221 222 221 218 214 215 217 216 218 221 221 221 223 225 228 230 232 233 234 238 241 243 245 247 249 250 250 249 250 251 253 253 252 253 255 258 262 264 264 262 261 262 262 262 263 259 255 257 262 266 268 264 265 266 265 271 277 287 296 288 279 287 292 298 308 313 320
202 203 205 207 209 213 219 223 226 227 229 232 233 232 231 230 228 224 222 222 221 220 217 216 215 216 218 220 222 223 225 228 229 231 233 234 234 236 239 240 242 244 246 247 247 248 249 249 250 250 250 251 253 256 260 263 264 263 261 261 262 261 259 257 255 255 256 260 263 260 257 256 259 266 262 268 295 296 286 290 290 289 298 311 321
204 203 203 205 208 212 218 222 223 226 229 230 234 236 234 233 232 229 226 225 224 222 221 219 217 216 217 220 223 224 225 227 229 231 234 236 236 238 240 241 243 243 244 246 247 247 247 247 247 247 247 250 253 255 258 260 262 262 259 257 258 257 257 256 254 255 256 257 258 261 262 256 252 259 257 254 277 282 280 291 294 291 295 306 317
209 208 205 206 212 217 222 223 221 222 226 228 233 239 241 238 234 232 231 229 227 227 225 222 220 219 218 220 223 225 225 226 227 229 233 235 236 238 241 243 244 245 245 246 246 247 248 248 247 247 246 246 250 252 253 259 263 262 262 262 259 259 261 261 261 262 266 269 272 277 284 280 268 261 260 259 263 265 273 289 296 299 298 301 309
221 218 218 218 220 223 222 218 216 215 221 228 232 237 244 246 240 233 231 231 230 228 228 226 223 222 221 222 223 224 225 226 227 228 229 232 236 239 242 245 246 248 249 249 249 248 247 247 248 249 249 247 246 246 247 256 262 261 265 270 269 274 276 272 270 275 280 284 287 289 293 290 284 272 254 253 262 268 281 289 292 297 301 303 303
234 227 230 230 229 229 225 219 218 217 223 232 235 234 237 245 250 245 235 233 233 229 228 228 227 225 222 221 222 224 226 227 227 226 226 229 235 240 243 246 248 250 252 253 254 252 249 249 250 250 250 248 247 249 251 255 257 254 257 263 262 265 272 275 276 276 274 273 276 279 274 278 282 276 257 248 265 268 276 288 293 300 304 304 303
244 236 238 240 237 232 226 222 221 220 223 230 231 229 231 239 251 256 249 240 235 229 227 227 227 228 228 225 224 225 226 225 224 226 231 236 240 241 243 247 247 249 252 252 254 256 254 253 252 250 248 246 248 252 251 250 250 251 254 258 257 252 254 261 263 260 260 258 259 265 260 262 283 284 276 266 275 276 284 291 294 298 299 301 307
252 248 246 245 243 236 227 225 223 220 220 223 223 227 230 230 234 240 244 245 242 232 227 227 226 228 231 233 233 233 231 227 223 228 236 241 243 243 244 249 250 248 248 250 252 253 254 255 255 252 249 246 245 247 246 245 248 253 256 259 260 255 251 251 251 249 251 255 254 257 255 255 280 283 281 284 290 287 291 291 291 293 293 301 311
259 259 256 251 247 240 231 227 224 221 221 223 224 226 226 223 225 228 229 237 245 240 231 227 228 231 235 237 239 240 239 234 227 230 239 243 248 252 249 250 254 250 248 251 253 252 251 253 256 256 254 253 249 245 244 248 254 259 263 264 263 263 260 255 254 252 249 253 258 257 257 261 269 272 276 291 292 287 290 291 295 300 301 308 317
288 277 271 266 257 248 240 235 231 231 232 231 228 224 222 225 230 229 222 225 239 246 241 237 234 234 239 245 252 257 257 247 233 233 242 246 251 258 254 251 253 251 249 251 253 253 252 252 255 257 257 255 251 243 239 247 256 262 265 264 260 260 261 259 260 257 246 242 247 254 260 261 259 262 266 266 271 280 290 293 298 303 306 313 326
5 334 303 286 271 258 250 245 243 243 242 239 232 225 224 227 227 221 213 213 222 234 244 252 251 242 239 246 260 271 285 289 255 235 239 247 253 260 259 254 254 254 256 258 255 251 251 251 253 256 257 252 245 242 244 248 256 260 261 259 256 256 256 253 252 249 242 239 241 250 259 257 249 253 254 247 264 279 282 288 296 298 299 298 242
37 26 9 338 299 270 254 247 246 244 238 236 235 231 230 228 221 214 213 215 218 224 233 252 259 251 245 248 256 257 262 283 286 268 259 265 270 269 261 254 256 259 262 265 261 253 252 252 251 252 254 251 244 246 253 257 260 264 263 260 257 256 254 251 246 242 241 240 237 240 247 246 242 245 241 237 255 273 275 280 279 275 286 290 268
46 41 36 29 15 325 268 248 243 241 236 235 236 231 225 220 212 205 207 210 210 206 206 234 254 253 248 249 256 250 243 255 271 273 271 273 277 272 260 252 256 258 257 260 261 258 255 253 250 249 252 253 251 253 260 263 263 264 263 262 261 257 255 254 253 251 246 242 236 235 240 242 242 244 243 245 253 254 258 271 269 265 270 279 285
47 47 49 50 51 48 44 50 61 255 255 248 237 223 209 197 188 189 196 199 202 194 183 202 233 244 242 239 239 238 239 250 261 266 266 266 269 275 273 264 262 260 258 260 266 265 259 252 249 250 253 257 258 259 263 264 263 260 259 262 260 256 254 251 249 252 251 244 239 239 242 242 241 242 239 241 243 236 249 266 268 273 269 266 287
52 53 56 58 59 59 57 58 62 61 53 47 277 230 198 171 155 159 173 176 192 197 180 184 212 232 242 243 242 242 243 250 258 265 272 274 273 275 278 275 275 274 271 269 272 273 270 263 256 254 257 264 263 260 262 264 262 257 258 261 257 253 254 250 243 244 245 238 235 239 242 236 232 233 227 223 220 207 226 287 284 280 282 291 308
58 58 60 62 63 63 62 60 60 56 53 54 51 23 353 141 132 138 158 157 160 170 157 158 192 231 235 237 251 259 250 248 262 279 291 294 292 289 286 286 287 286 282 274 271 273 274 274 270 267 271 279 275 269 267 266 265 262 258 257 257 257 256 252 246 242 236 225 218 226 233 224 209 197 182 174 185 178 162 76 29 347 298 295 311
59 60 60 61 62 62 62 61 61 59 53 50 50 44 40 76 105 135 175 169 165 165 147 125 110 148 196 181 14 334 307 277 278 291 298 301 301 299 295 292 287 285 287 283 276 275 274 275 278 281 281 279 276 274 270 267 268 268 261 256 255 253 252 250 241 231 225 219 210 208 210 211 209 196 170 154 141 141 144 127 94 77 69 57 25
54 56 57 57 57 58 59 61 63 62 58 52 46 40 36 44 64 97 172 164 149 139 126 123 138 141 132 115 69 11 343 316 286 293 302 306 308 304 292 279 274 277 284 285 281 281 283 283 286 285 280 275 272 271 269 267 268 267 263 260 258 256 253 250 238 224 222 222 214 208 205 204 200 173 145 137 114 105 113 120 114 102 94 92 93
51 54 54 53 53 53 54 56 58 57 55 55 53 46 42 43 53 72 107 118 112 107 106 111 117 106 86 83 97 85 40 24 43 43 19 12 355 342 313 284 282 280 280 281 283 287 291 290 289 286 284 283 279 274 270 267 264 263 262 262 263 262 255 246 234 225 222 217 207 200 193 185 177 157 142 132 116 109 106 101 103 102 100 103 103
55 57 55 54 54 55 53 51 52 54 51 52 56 56 56 56 55 60 70 79 84 87 88 91 91 85 79 73 68 68 65 58 61 63 60 58 52 43 41 1 328 308 290 287 292 294 296 297 299 301 302 300 298 291 280 270 262 261 263 263 265 264 253 240 231 220 211 206 201 195 185 172 163 155 148 140 131 122 113 102 99 97 93 95 93
58 58 58 57 57 58 57 53 52 54 53 51 50 49 49 51 51 53 57 61 66 71 74 78 82 85 84 79 71 68 66 60 57 53 45 35 26 16 5 344 329 320 313 311 309 305 306 309 312 316 318 319 322 319 305 287 271 262 260 261 263 259 246 235 227 215 206 201 192 179 168 161 158 153 145 138 129 118 108 103 101 97 93 91 90
60 58 59 60 58 58 59 57 55 57 57 55 55 55 54 52 48 50 56 61 65 70 73 76 82 82 79 74 67 59 50 43 40 33 22 13 3 350 336 323 316 314 313 315 318 315 311 313 322 331 336 340 340 334 325 316 297 275 266 262 259 252 242 233 224 213 203 192 175 159 151 150 151 143 133 127 119 110 110 114 109 103 99 95 93
59 60 60 61 60 58 58 57 57 58 59 59 59 59 61 63 61 56 55 58 64 71 74 74 74 74 70 65 57 43 30 24 19 10 1 357 350 337 328 322 319 319 319 320 321 319 318 326 342 351 354 352 345 339 337 334 324 307 290 273 258 251 246 236 221 206 187 166 150 145 143 141 138 131 124 122 118 114 118 121 109 99 91 83 84
57 60 60 60 59 57 56 58 59 61 64 65 64 61 60 61 64 65 64 61 60 65 70 72 70 67 61 57 51 39 24 17 14 10 5 360 353 348 347 342 337 333 327 322 322 326 336 341 340 348 355 351 344 343 349 351 351 359 360 306 257 234 211 199 188 171 152 139 133 132 131 129 126 123 122 120 116 112 108 97 88 78 60 46 43
56 58 58 57 57 57 55 56 60 65 70 72 73 72 71 69 67 67 68 69 69 71 74 75 75 72 66 58 50 38 24 20 22 22 18 11 6 4 360 354 350 346 335 328 333 339 337 318 308 321 357 3 357 357 6 18 29 41 51 66 93 108 123 134 133 128 127 126 124 121 119 118 119 121 120 113 105 99 92 84 76 63 48 38 31
51 51 50 47 43 45 52 54 54 60 71 78 80 79 78 76 75 73 71 69 69 72 76 79 83 86 82 74 69 63 49 39 34 30 26 20 14 9 2 355 352 351 350 349 347 339 320 306 323 348 1 14 20 16 23 43 57 62 69 80 94 102 107 111 111 112 115 117 115 113 112 113 115 113 110 106 101 96 89 80 68 54 38 23 11
41 41 42 39 30 27 37 45 48 53 61 72 84 87 82 76 72 71 72 72 71 72 75 77 79 81 80 75 69 62 51 41 34 28 25 23 18 12 8 6 3 9 20 16 346 323 318 328 352 1 4 29 44 43 46 57 67 77 81 84 92 100 103 104 105 106 105 104 104 102 103 106 110 109 108 109 108 101 91 73 48 28 14 1 352
38 34 33 31 25 22 28 33 36 44 52 57 69 83 90 86 78 71 70 73 75 78 82 83 80 78 76 71 63 54 44 37 31 25 23 25 22 17 15 17 18 27 39 25 348 339 360 6 9 11 13 34 54 63 71 75 79 89 94 91 90 95 100 103 104 103 101 101 103 104 104 107 111 112 113 117 113 98 76 45 21 8 356 346 340
44 38 31 24 20 21 25 25 25 31 37 39 44 50 61 81 88 86 81 78 78 80 84 86 82 76 72 68 61 53 45 37 31 27 28 31 30 26 28 30 30 39 50 38 19 21 30 25 24 22 18 28 49 65 81 91 95 99 102 99 94 95 101 107 109 106 104 103 105 107 111 115 119 121 124 126 119 93 44 14 1 350 341 336 334
51 45 37 29 22 20 18 14 12 13 11 9 3 359 18 38 66 98 108 103 95 86 80 78 72 66 63 59 53 49 45 40 35 34 35 39 42 43 43 39 35 42 50 47 39 37 35 32 32 28 23 31 45 56 73 88 96 101 104 103 102 103 108 112 112 109 106 105 104 106 111 119 125 129 131 129 122 98 52 20 357 342 337 335 333
47 50 43 35 26 15 9 4 357 347 343 337 317 304 305 269 226 235 90 106 107 93 79 70 57 48 47 48 47 45 43 41 38 37 37 44 52 57 55 48 41 45 50 49 45 44 42 40 40 39 37 43 56 70 77 79 84 94 102 108 112 114 113 112 110 108 107 108 112 117 114 106 104 109 113 111 101 81 59 38 18 356 344 337 331
353 10 30 24 12 4 2 356 343 331 322 307 296 290 280 258 238 209 177 176 181 115 84 83 51 32 31 31 34 39 43 43 42 43 47 56 61 59 57 56 53 51 51 50 48 48 49 49 49 48 47 50 61 77 86 87 91 99 107 113 117 119 119 117 115 116 115 115 118 119 107 90 86 92 91 85 74 60 51 38 21 3 342 333 329
322 329 349 357 351 343 339 333 328 326 312 291 280 268 255 255 255 235 222 220 220 242 275 258 236 295 32 23 18 26 38 44 45 45 47 52 55 55 56 58 58 56 55 53 51 51 53 55 55 53 51 52 55 64 76 83 90 97 104 109 111 112 115 117 117 118 119 118 116 109 92 75 72 71 65 61 54 42 33 15 350 338 328 321 316
296 296 300 315 323 317 312 307 304 304 293 278 270 263 253 247 240 237 239 234 223 230 251 272 270 268 359 18 5 6 21 32 38 40 41 42 46 52 58 58 57 59 60 58 57 59 60 59 58 57 57 59 59 60 65 70 77 84 91 96 97 96 98 99 99 97 97 97 94 89 78 66 58 51 46 47 44 24 6 348 335 329 324 314 311
293 278 274 284 289 286 295 302 300 296 291 280 271 269 264 255 245 239 237 229 224 232 244 254 265 282 318 346 346 345 353 18 37 41 42 45 47 50 55 57 57 59 60 60 62 65 63 60 59 58 58 61 63 64 66 68 73 78 80 80 79 78 77 76 72 68 67 64 61 58 56 50 43 38 36 38 29 7 349 338 332 329 323 319 320
304 290 283 286 279 271 277 285 284 284 288 286 278 268 264 262 262 258 248 238 230 229 237 242 244 254 274 295 337 351 357 30 55 50 46 50 51 49 51 56 56 55 55 55 56 60 61 61 61 60 61 64 66 69 71 73 76 80 80 75 71 70 70 67 63 59 57 57 53 50 48 42 32 25 20 14 3 351 341 334 330 327 324 325 329
304 298 291 284 275 270 270 272 270 270 277 282 280 273 265 260 261 262 260 254 240 220 218 228 219 201 211 205 144 96 33 37 70 72 62 61 59 54 54 54 52 51 52 51 51 53 55 58 60 62 63 65 67 71 75 76 76 78 80 78 74 70 65 60 54 47 43 39 31 22 15 11 6 360 358 356 351 349 346 339 334 334 335 331 330
299 296 292 283 272 267 268 268 267 265 263 264 267 268 267 264 261 258 258 258 250 232 222 211 179 168 190 189 150 127 105 60 82 88 81 77 75 71 68 65 62 57 54 50 48 47 48 51 54 57 59 62 65 68 72 74 75 75 74 73 69 65 59 51 39 26 17 11 5 358 352 348 346 347 348 350 349 351 354 353 348 347 345 339 336
292 290 289 285 278 274 273 272 270 264 258 258 261 263 262 263 260 254 250 253 251 244 233 211 173 160 172 169 146 134 146 157 103 92 83 85 92 93 85 75 69 62 53 46 42 40 40 44 48 51 56 61 65 65 66 68 69 69 70 67 62 55 47 36 22 12 5 357 352 351 352 350 350 350 352 356 359 359 4 10 5 354 346 343 343
285 283 281 279 277 275 274 274 273 268 264 264 262 257 255 259 259 255 252 251 250 248 241 218 182 167 168 166 163 178 217 225 222 219 164 99 97 98 92 81 68 58 46 36 29 31 40 48 49 51 58 64 67 70 72 69 63 61 62 59 48 35 27 19 9 4 1 356 352 351 354 358 358 356 353 2 5 356 3 29 16 358 349 346 343
275 275 277 277 276 274 272 272 273 271 267 263 259 256 256 260 262 261 257 251 247 246 241 220 195 187 184 184 197 220 224 215 217 222 212 203 181 108 93 81 65 47 30 16 12 18 24 23 23 30 46 55 60 66 69 69 68 65 55 41 18 7 4 358 350 346 346 348 352 356 356 358 3 3 360 358 351 346 354 2 352 344 342 336 332
278 277 277 276 276 275 275 274 274 274 270 266 263 261 261 261 262 263 260 252 244 242 238 221 207 207 206 206 210 214 211 210 214 213 213 220 218 208 204 201 98 69 32 359 357 359 353 340 334 339 359 41 77 85 79 76 74 66 57 48 32 10 355 342 334 332 332 335 342 348 347 350 360 8 5 355 344 341 345 339 332 334 334 327 323
289 284 279 278 279 278 277 277 276 276 275 272 271 269 266 263 262 262 258 249 242 240 238 229 219 218 222 222 215 203 204 213 214 206 208 216 212 200 200 197 201 302 317 321 322 321 315 301 290 276 251 201 155 121 98 83 69 60 60 54 30 9 2 357 344 338 336 339 343 341 338 343 348 359 360 348 336 335 339 337 332 328 323 320 321
296 290 286 285 283 280 279 279 277 275 274 274 274 274 271 267 262 257 251 244 236 233 235 234 227 221 221 223 218 209 210 213 209 204 204 203 196 202 207 207 255 278 287 292 294 296 292 278 265 240 207 190 163 127 106 92 72 60 58 44 17 5 19 61 37 9 17 30 1 342 337 342 343 345 354 351 348 352 352 345 342 332 321 319 322
298 296 295 294 290 287 287 286 283 280 280 279 279 278 276 273 267 259 252 243 234 230 234 236 232 224 217 209 205 205 207 208 207 210 212 208 209 221 228 226 257 276 282 284 286 290 284 268 246 217 198 190 164 130 109 92 80 69 55 34 14 10 26 46 41 47 65 64 17 357 7 12 360 358 9 9 7 10 2 348 342 336 324 319 319
306 303 303 304 303 299 298 297 295 292 289 288 286 284 280 276 271 262 253 245 238 236 238 238 236 233 221 205 198 198 201 208 214 216 217 218 223 232 242 255 271 286 294 295 293 288 276 254 221 194 187 180 159 134 108 85 75 66 36 11 11 23 28 25 26 40 63 76 50 17 22 25 14 8 5 1 358 1 356 344 338 334 326 320 321
310 308 310 315 316 311 309 311 311 309 305 301 298 295 289 282 277 269 258 249 244 241 235 231 230 225 209 202 204 203 201 206 214 217 217 221 228 236 252 268 281 293 297 296 293 284 264 231 199 184 176 164 147 126 105 85 60 353 330 336 355 1 6 9 13 25 57 90 85 30 14 25 24 16 10 2 353 351 348 342 337 332 325 318 317